Regional Weather Roundup
Issued by NWS

Home | Current Version | Previous Version | Graphics & Text | Print | Product List | Glossary On
Versions: 1 2 3 4 5 6 7 8 9 10 11 12 13 14 15 16 17 18 19 20 21 22 23 24 25 26 27 28 29 30 31 32 33 34 35 36 37 38 39 40 41 42 43 44 45 46 47 48 49 50
964
ASUS43 KTOP 171159
RWRKS

WEATHER ROUNDUP FOR KANSAS
NATIONAL WEATHER SERVICE GOODLAND KS
600 AM CST TUE JAN 17 2017

NOTE:  "FAIR" INDICATES FEW OR NO CLOUDS BELOW 12,000 FEET WITH NO
SIGNIFICANT WEATHER AND/OR OBSTRUCTIONS TO VISIBILITY.

KSZ001>006-013>018-027>032-041>047-171300-
NORTHWEST KANSAS

CITY           SKY/WX    TMP DP  RH WIND       PRES   REMARKS
GOODLAND       CLEAR     25  20  81 W9        30.08F
6HR MIN TEMP:  24; 6HR MAX TEMP:  29;

HAYS           PTCLDY    32  27  81 NW8       30.09S
HILL CITY      CLOUDY    30  26  85 W5        30.09F
6HR MIN TEMP:  30; 6HR MAX TEMP:  33;

RUSSELL        CLOUDY    31  28  89 NW8       30.07S
6HR MIN TEMP:  31; 6HR MAX TEMP:  34;

$$

KSZ061>065-074>080-084>089-171300-
SOUTHWEST KANSAS

CITY           SKY/WX    TMP DP  RH WIND       PRES   REMARKS
DODGE CITY     CLOUDY    33  29  85 NW9       30.11R
6HR MIN TEMP:  32; 6HR MAX TEMP:  34;

ELKHART          N/A     33  25  72 NW8         N/A
GARDEN CITY    CLOUDY    34  29  82 NW9       30.11S
6HR MIN TEMP:  33; 6HR MAX TEMP:  34; 6HR PCP: TRACE;

GREAT BEND     MOCLDY    33  29  85 NW10      30.09S WCI  25
LIBERAL        CLOUDY    36  28  75 NW10      30.13F WCI  28
$$

KSZ066>073-081>083-090>101-171300-
SOUTHEAST KANSAS

CITY           SKY/WX    TMP DP  RH WIND       PRES   REMARKS
CHANUTE        CLOUDY    36  34  92 NW8       30.07R
6HR MIN TEMP:  36; 6HR MAX TEMP:  38;

HUTCHINSON     CLEAR     33  30  88 NW7       30.09R
6HR MIN TEMP:  33; 6HR MAX TEMP:  35;

MEDICINE LODGE   N/A     31  28  89 CALM      30.12R
NEWTON         CLOUDY    33  32  96 W8        30.08R
PARSONS        CLOUDY    37  35  92 NW8       30.09R
6HR MIN TEMP:  37; 6HR MAX TEMP:  40;

WICHITA INTL   CLOUDY    35  33  92 NW7       30.10R
6HR MIN TEMP:  35; 6HR MAX TEMP:  36; 6HR PCP: TRACE;

WICHITA JABRA  CLOUDY    34  33  96 W5        30.09R
6HR MIN TEMP:  33; 6HR MAX TEMP:  35;

WINFIELD       CLOUDY    37  33  85 NW10      30.12R WCI  30
6HR MIN TEMP:  36; 6HR MAX TEMP:  37;

$$

KSZ007>012-019>026-033>040-048>060-102>105-171300-
NORTHEAST KANSAS

CITY           SKY/WX    TMP DP  RH WIND       PRES   REMARKS
CONCORDIA      PTCLDY    29  27  92 NW9       30.06R
6HR MIN TEMP:  29; 6HR MAX TEMP:  33;

EMPORIA        CLOUDY    34  33  96 NW8       30.04F
6HR MIN TEMP:  33; 6HR MAX TEMP:  34;

LAWRENCE       CLOUDY    34  34 100 W7        30.05R FOG
6HR MIN TEMP:  34; 6HR MAX TEMP:  35;

MANHATTAN      CLOUDY    34  32  92 SW6       30.07R
6HR MIN TEMP:  34; 6HR MAX TEMP:  35;

OLATHE IND     CLOUDY    34  33  96 W12       30.04R FOG     WCI  25
6HR MIN TEMP:  34; 6HR MAX TEMP:  35;

OLATHE EXE     CLOUDY    33  33 100 NW9       30.02R
6HR MIN TEMP:  33; 6HR MAX TEMP:  35;

SALINA           N/A    N/A N/A N/A MISG        N/A
TOPEKA BILLARD CLOUDY    35  32  88 W6        30.05S
6HR MIN TEMP:  35; 6HR MAX TEMP:  36;

TOPEKA FORBES  CLOUDY    35  33  92 W9        30.05R FOG
6HR MIN TEMP:  35; 6HR MAX TEMP:  36;

$$




USA.gov is the U.S. government's official web portal to all federal, state and local government web resources and services.